This is the latest recevied weather packets stored in our database for station/object s59zo-6. If no packets are shown the sender has not sent any weather packets the latest 10 day(s).
| Time | Temp. | Humidity | Pressure | Rain* | Wind** | Luminosity | Snow |
|---|---|---|---|---|---|---|---|
| 1787658005 | 25° C | 59% | 1015.2 hPa | 0 mm | - | - | - |
| 1787657704 | 25.56° C | 60% | 1015.3 hPa | 0 mm | - | - | - |
| 1787657404 | 25.56° C | 60% | 1015.3 hPa | 0 mm | - | - | - |
| 1787657104 | 25.56° C | 60% | 1015.5 hPa | 0 mm | - | - | - |
| 1787656805 | 25° C | 61% | 1015.5 hPa | 0 mm | - | - | - |
| 1787656504 | 25° C | 62% | 1015.8 hPa | 0 mm | - | - | - |
| 1787656205 | 24.44° C | 63% | 1015.5 hPa | 0 mm | - | - | - |
| 1787655904 | 24.44° C | 62% | 1015.6 hPa | 0 mm | - | - | - |
| 1787655605 | 24.44° C | 62% | 1015.7 hPa | 0 mm | - | - | - |
| 1787655304 | 23.89° C | 63% | 1015.6 hPa | 0 mm | - | - | - |
| 1787655005 | 23.89° C | 63% | 1015.4 hPa | 0 mm | - | - | - |
| 1787654704 | 23.89° C | 63% | 1015.5 hPa | 0 mm | - | - | - |
| 1787654405 | 23.89° C | 62% | 1015.4 hPa | 0 mm | - | - | - |
| 1787654104 | 23.89° C | 63% | 1015.4 hPa | 0 mm | - | - | - |
| 1787653805 | 23.33° C | 63% | 1015.3 hPa | 0 mm | - | - | - |
| 1787653504 | 23.33° C | 64% | 1015.4 hPa | 0 mm | - | - | - |
| 1787653205 | 23.33° C | 64% | 1015.5 hPa | 0 mm | - | - | - |
| 1787652904 | 23.33° C | 64% | 1015.5 hPa | 0 mm | - | - | - |
| 1787652604 | 23.33° C | 65% | 1015.5 hPa | 0 mm | - | - | - |
| 1787652305 | 22.78° C | 65% | 1015.5 hPa | 0 mm | - | - | - |
| 1787652004 | 22.78° C | 65% | 1015.5 hPa | 0 mm | - | - | - |
| 1787651703 | 22.78° C | 66% | 1015.6 hPa | 0 mm | - | - | - |
| 1787651404 | 22.22° C | 67% | 1015.5 hPa | 0 mm | - | - | - |
| 1787651104 | 22.22° C | 67% | 1015.4 hPa | 0 mm | - | - | - |
| 1787650805 | 22.22° C | 66% | 1015.7 hPa | 0 mm | - | - | - |
* Rain latest hour (hover to see other rain measurements)
** Current wind speed in m/s (hover to see current wind gust speed)